Location: Baggettsville
(36.4767°N, 86.7303°W)
Time: 00:15:35
(UTC+00:00)

OAO 2 Rocket - Pass Details

Date: 29 October 2020
Orbit: 676 x 746 km, 35.0° (Epoch: 28 November)

Event Time Altitude Azimuth Distance (km) Brightness Sun altitude
Rises 23:35:27 0° 261° (W) 3,075 9.1 -9.1°
Reaches altitude 10° 23:37:53 10° 259° (W) 2,146 7.5 -9.6°
Maximum altitude 23:42:53 74° 175° (S) 714 3.4 -10.6°
Enters shadow 23:46:56 15° 92° (E) 1,788 4.8 -11.4°
